EW5790 Weather Reports


time (UTC)temp
C
wind
direction
speed
KPH
gust
KPH
rain 1hr
cm
rain 24hr
cm
rain mn
cm
humidity
%
barometer
mb
20260503214556 17 253 0.0 0.0 0.00 0.00 0.00 41 1016.8
20260503213052 17 241 0.0 0.0 0.00 0.00 0.00 44 1016.9
20260503211550 17 169 0.0 0.0 0.00 0.00 0.00 43 1017.3
20260503210043 17 332 0.0 0.0 0.00 0.00 0.00 43 1017.7
20260503204541 17 275 0.0 0.0 0.00 0.00 0.00 42 1018.1
20260503203038 18 332 0.0 0.0 0.00 0.00 0.00 43 1018.0
20260503201530 17 294 0.0 0.0 0.00 0.00 0.00 46 1018.2
20260503200028 17 111 0.0 0.0 0.00 0.00 0.00 44 1018.6
20260503194522 17 254 0.0 0.0 0.00 0.00 0.00 40 1018.8
20260503193033 17 261 0.0 0.0 0.00 0.00 0.00 40 1019.0
20260503191531 17 291 0.0 0.0 0.00 0.00 0.00 40 1019.2
20260503190023 17 192 0.0 0.0 0.00 0.00 0.00 41 1019.5
20260503184504 17 343 0.0 0.0 0.00 0.00 0.00 39 1019.8
20260503183100 16 234 0.0 0.0 0.00 0.00 0.00 40 1019.8
20260503181556 16 186 0.0 0.0 0.00 0.00 0.00 40 1020.0
20260503180058 16 343 0.0 0.0 0.00 0.00 0.00 39 1020.3
20260503174552 16 248 0.0 0.0 0.00 0.00 0.00 44 1020.6
20260503173042 15 304 0.0 0.0 0.00 0.00 0.00 41 1020.9
20260503171537 15 285 0.0 0.0 0.00 0.00 0.00 40 1021.0
20260503081600 0 101 0.0 0.0 0.00 0.03 0.00 1 1020.7
20260503080104 0 101 0.0 0.0 0.00 0.03 0.00 1 1020.6
20260503071544 1 101 0.0 0.0 0.00 0.03 0.00 1 1020.4
20260503054516 2 101 0.0 0.0 0.00 0.03 0.00 1 1020.0
20260503053011 2 101 0.0 0.0 0.00 0.03 0.00 1 1019.8
20260503051506 2 101 0.0 0.0 0.00 0.03 0.00 1 1019.9
20260503050003 2 101 0.0 0.0 0.00 0.03 0.00 1 1019.8
20260503044558 2 101 0.0 0.0 0.00 0.03 0.00 1 1019.7
20260503043057 3 101 0.0 0.0 0.00 0.03 0.00 1 1019.7
20260503041550 3 101 0.0 0.0 0.00 0.03 0.00 4 1019.5
20260503040046 3 101 0.0 0.0 0.00 0.03 0.00 14 1019.4
20260503034545 4 101 0.0 0.0 0.00 0.03 0.03 18 1019.4
20260503033035 5 101 0.0 0.0 0.00 0.03 0.03 25 1019.4
20260503031532 5 101 0.0 0.0 0.00 0.03 0.03 29 1019.3
20260503030034 6 101 0.0 0.0 0.00 0.03 0.03 30 1019.2
20260503024523 6 101 0.0 0.0 0.00 0.03 0.03 35 1019.1
20260503023018 7 101 0.0 0.0 0.00 0.03 0.03 37 1019.0
20260503021514 7 101 0.0 0.0 0.00 0.03 0.03 50 1018.9
20260503020010 7 101 0.0 0.0 0.00 0.03 0.03 59 1018.8
20260503014505 8 101 0.0 0.0 0.00 0.03 0.03 61 1018.6
20260503013003 8 101 0.0 0.0 0.00 0.03 0.03 62 1018.4
20260503011557 8 101 0.0 0.0 0.00 0.03 0.03 65 1018.2
20260503010054 9 101 0.0 0.0 0.00 0.03 0.03 68 1017.9
20260503004550 9 101 0.0 0.0 0.00 0.03 0.03 69 1017.7
20260503003047 10 101 0.0 0.0 0.00 0.03 0.03 69 1017.6
20260503001546 11 315 0.0 0.0 0.00 0.03 0.03 63 1017.5
20260503000041 12 315 0.0 0.0 0.00 0.03 0.03 58 1017.2
20260502234540 12 321 0.0 0.0 0.00 0.03 0.03 53 1017.1
20260502233037 12 333 0.0 0.0 0.00 0.03 0.03 51 1017.0
20260502231526 12 305 0.0 0.0 0.00 0.03 0.03 53 1016.9
20260502230032 12 342 0.0 0.0 0.00 0.03 0.03 54 1016.9
20260502224522 13 321 0.0 0.0 0.00 0.03 0.03 51 1016.8
20260502223029 13 121 0.0 0.0 0.00 0.03 0.03 53 1016.8
20260502221515 12 16 0.0 0.0 0.00 0.03 0.03 51 1016.8
20260502220011 12 340 0.0 0.0 0.00 0.03 0.03 54 1016.7